1295049629368,0.515979
1295049689368,0.515652
1295049749368,0.510495
1295049809368,0.511265
1295049869368,0.513105
1295049929368,0.513236
1295049989368,0.515453
1295050049368,0.514458
1295050109368,0.508531
1295050169368,0.510702
1295050229368,0.519442
1295050289368,0.513463
1295050349368,0.508789
1295050409368,0.514033
1295050469368,0.514924
1295050529368,0.514960
1295050589368,0.517936
1295050649368,0.515934
1295050709368,0.509461
1295050769368,0.519023
1295050829368,0.516510
1295050889368,0.520032
1295050949368,0.514368
1295051009368,0.522011
1295051069368,0.517645
1295051129368,0.516931
1295051189368,0.516350
1295051249368,0.517134
1295051309368,0.520775
1295051369368,0.517465
1295051429368,0.520700
1295051489368,0.516695
1295051549368,0.520878
1295051609368,0.518298
1295051669368,0.510223
1295051729368,0.514572
1295051789368,0.517545
1295051849368,0.516440
1295051909368,0.509949
1295051969368,0.516572
1295052029368,0.515092
1295052089368,0.513270
1295052149368,0.519182
1295052209368,0.515682
1295052269368,0.514531
1295052329368,0.515769
1295052389368,0.512263
1295052449368,0.514295
1295052509368,0.508783
1295052569368,0.511761
1295052629368,0.513109
1295052689368,0.515400
1295052749368,0.516398
1295052809368,0.513270
1295052869368,0.509409
1295052929368,0.510998
1295052989368,0.516369
1295053049368,0.508877
1295053109368,0.511435
1295053169368,0.513616
1295053229379,0.509185
1295053289379,0.508506
1295053349379,0.509103
1295053409379,0.512907
1295053469379,0.512995
1295053529379,0.511612
1295053589379,0.505436
1295053649379,0.507065
1295053709379,0.507558
1295053769379,0.508704
1295053829379,0.517779
1295053889379,0.505542
1295053949379,0.507174
1295054009379,0.505147
1295054069379,0.512157
1295054129379,0.509445
1295054189379,0.511824
1295054249379,0.505864
1295054309379,0.510866
1295054369379,0.516114
1295054429379,0.512554
1295054489379,0.508260
1295054549379,0.505728
1295054609379,0.513226
1295054669379,0.507359
1295054729379,0.509739
1295054789379,0.504738
1295054849379,0.511930
1295054909379,0.507488
1295054969379,0.506384
1295055029379,0.509228
1295055089379,0.509306
1295055149379,0.509335
1295055209379,0.514100
1295055269379,0.508397
1295055329379,0.501976
1295055389379,0.508026
1295055449379,0.507664
1295055509379,0.507986
1295055569379,0.509233
1295055629379,0.511965
1295055689379,0.501986
1295055749379,0.515731
1295055809379,0.508500
1295055869379,0.514135
1295055929379,0.506961
1295055989379,0.512124
1295056049379,0.509421
1295056109379,0.505642
1295056169379,0.507811
1295056229379,0.508883
1295056289379,0.504650
1295056349379,0.505990
1295056409379,0.510216
1295056469379,0.512113
1295056529379,0.506178
1295056589379,0.507348
1295056649379,0.507736
1295056709379,0.508733
1295056769379,0.503380
1295056829389,0.504400
1295056889389,0.512866
1295056949389,0.506191
1295057009389,0.509335
1295057069389,0.502571
1295057129389,0.508614
1295057189389,0.513480
1295057249389,0.502009
1295057309389,0.506580
1295057369389,0.509826
1295057429389,0.509154
1295057489389,0.509116
1295057549389,0.510872
1295057609389,0.506354
1295057669389,0.509831
1295057729389,0.508109
1295057789389,0.509381
1295057849389,0.515176
1295057909389,0.509129
1295057969389,0.515598
1295058029389,0.511165
1295058089389,0.514958
1295058149389,0.511851
1295058209389,0.508904
1295058269389,0.512896
1295058329389,0.510813
1295058389389,0.504743
1295058449389,0.509675
1295058509389,0.514714
1295058569389,0.501004
1295058629389,0.508612
1295058689389,0.511700
1295058749389,0.509952
1295058809389,0.504732
1295058869389,0.512075
1295058929389,0.508546
1295058989389,0.507875
1295059049389,0.507187
1295059109389,0.515015
1295059169389,0.511876
1295059229389,0.508577
1295059289389,0.508433
1295059349389,0.508290
1295059409389,0.512960
1295059469389,0.512185
1295059529389,0.509595
1295059589389,0.509856
1295059649389,0.510312
1295059709389,0.506116
1295059769389,0.509217
1295059829389,0.511884
1295059889389,0.507963
1295059949389,0.508338
1295060009389,0.509181
1295060069389,0.507702
1295060129389,0.513412
1295060189389,0.507677
1295060249389,0.505312
1295060309389,0.506947
1295060369389,0.510931
1295060429400,0.504508
1295060489400,0.506129
1295060549400,0.509947
1295060609400,0.507550
1295060669400,0.508901
1295060729400,0.501773
1295060789400,0.515586
1295060849400,0.512320
1295060909400,0.511926
1295060969400,0.506882
1295061029400,0.508987
1295061089400,0.511407
1295061149400,0.509412
1295061209400,0.514345
1295061269400,0.508477
1295061329400,0.506212
1295061389400,0.509725
1295061449400,0.511418
1295061509400,0.510291
1295061569400,0.504775
1295061629400,0.508931
1295061689400,0.504124
1295061749400,0.509038
1295061809400,0.505382
1295061869400,0.515918
1295061929400,0.506767
1295061989400,0.507696
1295062049400,0.508207
1295062109400,0.510385
1295062169400,0.507455
1295062229400,0.507163
1295062289400,0.501496
1295062349400,0.506395
1295062409400,0.511177
1295062469400,0.504781
1295062529400,0.507114
1295062589400,0.511872
1295062649400,0.504616
1295062709400,0.505735
1295062769400,0.505376
1295062829400,0.509127
1295062889400,0.509453
1295062949400,0.504226
1295063009400,0.507420
1295063069400,0.506341
1295063129400,0.505183
1295063189400,0.507267
1295063249400,0.511031
1295063309400,0.504131
1295063369400,0.512162
1295063429400,0.507093
1295063489400,0.511281
1295063549400,0.512213
1295063609400,0.513149
1295063669400,0.513958
1295063729400,0.508253
1295063789400,0.514840
1295063849400,0.510878
1295063909400,0.508898
1295063969400,0.516364
1295064029410,0.506050
1295064089410,0.512682
1295064149410,0.512657
1295064209410,0.514909
1295064269410,0.510652
1295064329410,0.514171
1295064389410,0.511068
1295064449410,0.516760
1295064509410,0.514108
1295064569410,0.510330
1295064629410,0.515628
1295064689410,0.516521
1295064749410,0.516297
1295064809410,0.504550
1295064869410,0.512726
1295064929410,0.508194
1295064989410,0.508008
1295065049410,0.507662
1295065109410,0.511810
1295065169410,0.508882
1295065229410,0.509999
1295065289410,0.512169
1295065349410,0.511016
1295065409410,0.507160
1295065469410,0.513645
1295065529410,0.508366
1295065589410,0.504578
1295065649410,0.509495
1295065709410,0.507163
1295065769410,0.508930
1295065829410,0.510642
1295065889410,0.503947
1295065949410,0.512453
1295066009410,0.510733
1295066069410,0.512953
1295066129410,0.506523
1295066189410,0.508889
1295066249410,0.510286
1295066309410,0.506328
1295066369410,0.510364
1295066429410,0.509782
1295066489410,0.507215
1295066549410,0.507655
1295066609410,0.510792
1295066669410,0.504922
1295066729410,0.505353
1295066789410,0.498175
1295066849410,0.505673
1295066909410,0.502601
1295066969410,0.507897
1295067029410,0.505991
1295067089410,0.502248
1295067149410,0.508941
1295067209410,0.503411
1295067269410,0.503536
1295067329410,0.504572
1295067389410,0.498320
1295067449410,0.512319
1295067509410,0.503328
1295067569410,0.505301
1295067629421,0.499388
1295067689421,0.506626
1295067749421,0.505669
1295067809421,0.502527
1295067869421,0.504194
1295067929421,0.508074
1295067989421,0.504330
1295068049421,0.504935
1295068109421,0.506381
1295068169421,0.504997
1295068229421,0.505379
1295068289421,0.501585
1295068349421,0.505479
1295068409421,0.501653
1295068469421,0.508080
1295068529421,0.508645
1295068589421,0.502466
1295068649421,0.506572
1295068709421,0.504222
1295068769421,0.506520
1295068829421,0.503549
1295068889421,0.507250
1295068949421,0.506163
1295069009421,0.503661
1295069069421,0.507617
1295069129421,0.505609
1295069189421,0.500360
1295069249421,0.504165
1295069309421,0.501922
1295069369421,0.509536
1295069429421,0.508177
1295069489421,0.501157
1295069549421,0.503060
1295069609421,0.502982
1295069669421,0.507962
1295069729421,0.504267
1295069789421,0.505358
1295069849421,0.506763
1295069909421,0.504703
1295069969421,0.509099
1295070029421,0.511911
1295070089421,0.514573
1295070149421,0.504689
1295070209421,0.510685
1295070269421,0.509400
1295070329421,0.505590
1295070389421,0.509807
1295070449421,0.512962
1295070509421,0.514827
1295070569421,0.503000
1295070629421,0.504763
1295070689421,0.506543
1295070749421,0.506305
1295070809421,0.509929
1295070869421,0.506287
1295070929421,0.498316
1295070989421,0.505286
1295071049421,0.506685
1295071109421,0.504100
1295071169421,0.510521
1295071229432,0.505498
1295071289432,0.512581
1295071349432,0.507646
1295071409432,0.509788
1295071469432,0.503665
1295071529432,0.510596
1295071589432,0.513971
1295071649432,0.504816
1295071709432,0.510757
1295071769432,0.506922
1295071829432,0.504608
1295071889432,0.510437
1295071949432,0.504510
1295072009432,0.499323
1295072069432,0.509402
1295072129432,0.512025
1295072189432,0.512454
1295072249432,0.514432
1295072309432,0.514363
1295072369432,0.505685
1295072429432,0.513292
1295072489432,0.509775
1295072549432,0.509520
1295072609432,0.508096
1295072669432,0.509187
1295072729432,0.499208
1295072789432,0.507886
1295072849432,0.500082
1295072909432,0.502041
1295072969432,0.503519
1295073029432,0.506157
1295073089432,0.508453
1295073149432,0.503281
1295073209432,0.501798
1295073269432,0.503585
1295073329432,0.509105
1295073389432,0.503771
1295073449432,0.505759
1295073509432,0.504958
1295073569432,0.504182
1295073629432,0.506197
1295073689432,0.511012
1295073749432,0.518443
1295073809432,0.520860
1295073869432,0.520928
1295073929432,0.509380
1295073989432,0.509428
1295074049432,0.507868
1295074109432,0.500693
1295074169432,0.505957
1295074229432,0.503711
1295074289432,0.510078
1295074349432,0.505617
1295074409432,0.497407
1295074469432,0.502201
1295074529432,0.502796
1295074589432,0.510762
1295074649432,0.502663
1295074709432,0.505734
1295074769432,0.507242
1295074829443,0.503270
1295074889443,0.502954
1295074949443,0.502677
1295075009443,0.503806
1295075069443,0.500753
1295075129443,0.502787
1295075189443,0.505284
1295075249443,0.501349
1295075309443,0.524676
1295075369443,0.502015
1295075429443,0.507695
1295075489443,0.501823
1295075549443,0.504349
1295075609443,0.503950
1295075669443,0.506705
1295075729443,0.504876
1295075789443,0.505432
1295075849443,0.503606
1295075909443,0.508044
1295075969443,0.503027
1295076029443,0.507749
1295076089443,0.505385
1295076149443,0.503673
1295076209443,0.502783
1295076269443,0.505127
1295076329443,0.505504
1295076389443,0.504891
1295076449443,0.500576
1295076509443,0.501525
1295076569443,0.500095
1295076629443,0.508917
1295076689443,0.499172
1295076749443,0.502179
1295076809443,0.500011
1295076869443,0.504074
1295076929443,0.503243
1295076989443,0.505696
1295077049443,0.502764
1295077109443,0.500216
1295077169443,0.502711
1295077229443,0.499872
1295077289443,0.508881
1295077349443,0.501661
1295077409443,0.497768
1295077469443,0.503215
1295077529443,0.505732
1295077589443,0.503661
1295077649443,0.501492
1295077709443,0.503579
1295077769443,0.501554
1295077829443,0.497444
1295077889443,0.499509
1295077949443,0.504339
1295078009443,0.499353
1295078069443,0.504984
1295078129443,0.504247
1295078189443,0.506392
1295078249443,0.501392
1295078309443,0.506087
1295078369443,0.500997
1295078429454,0.502067
1295078489454,0.501982
1295078549454,0.500332
1295078609454,0.511069
1295078669454,0.499252
1295078729454,0.499808
1295078789454,0.506377
1295078849454,0.504924
1295078909454,0.509631
1295078969454,0.508748
1295079029454,0.504756
1295079089454,0.503130
1295079149454,0.500295
1295079209454,0.506867
1295079269454,0.501045
1295079329454,0.504342
1295079389454,0.503890
1295079449454,0.505661
1295079509454,0.507809
1295079569454,0.503495
1295079629454,0.506583
1295079689454,0.500030
1295079749454,0.508598
1295079809454,0.498219
1295079869454,0.505470
1295079929454,0.501972
1295079989454,0.500300
1295080049454,0.503616
1295080109454,0.504426
1295080169454,0.503435
1295080229454,0.504734
1295080289454,0.502090
1295080349454,0.508975
1295080409454,0.502652
1295080469454,0.499862
1295080529454,0.501438
1295080589454,0.501607
1295080649454,0.505947
1295080709454,0.500137
1295080769454,0.504142
1295080829454,0.500474
1295080889454,0.494470
1295080949454,0.497334
1295081009454,0.501370
1295081069454,0.499764
1295081129454,0.501788
1295081189454,0.501865
1295081249454,0.500402
1295081309454,0.502275
1295081369454,0.501393
1295081429454,0.498051
1295081489454,0.498950
1295081549454,0.505375
1295081609454,0.500132
1295081669454,0.499521
1295081729454,0.504391
1295081789454,0.506042
1295081849454,0.501886
1295081909454,0.501635
1295081969454,0.503595
1295082029466,0.506942
1295082089466,0.502047
1295082149466,0.500895
1295082209466,0.501828
1295082269466,0.500859
1295082329466,0.500674
1295082389466,0.502783
1295082449466,0.504506
1295082509466,0.500065
1295082569466,0.503421
1295082629466,0.503199
1295082689466,0.505671
1295082749466,0.507743
1295082809466,0.502546
1295082869466,0.508164
1295082929466,0.505858
1295082989466,0.497605
1295083049466,0.506480
1295083109466,0.503728
1295083169466,0.505581
1295083229466,0.500427
1295083289466,0.500948
1295083349466,0.509281
1295083409466,0.504033
1295083469466,0.510068
1295083529466,0.511279
1295083589466,0.505620
1295083649466,0.506910
1295083709466,0.504343
1295083769466,0.499428
1295083829466,0.508649
1295083889466,0.512020
1295083949466,0.503200
1295084009466,0.507691
1295084069466,0.504196
1295084129466,0.506980
1295084189466,0.505918
1295084249466,0.502889
1295084309466,0.505827
1295084369466,0.507724
1295084429466,0.513280
1295084489466,0.512182
1295084549466,0.513260
1295084609466,0.509200
1295084669466,0.508293
1295084729466,0.505515
1295084789466,0.506687
1295084849466,0.506288
1295084909466,0.506029
1295084969466,0.511431
1295085029466,0.509956
1295085089466,0.506413
1295085149466,0.510836
1295085209466,0.507674
1295085269466,0.512632
1295085329466,0.511901
1295085389466,0.511234
1295085449466,0.510064
1295085509466,0.511726
1295085569466,0.509074
1295085629477,0.509550
1295085689477,0.511075
1295085749477,0.509888
1295085809477,0.511311
1295085869477,0.508691
1295085929477,0.516197
1295085989477,0.514907
1295086049477,0.511075
1295086109477,0.514225
1295086169477,0.510019
1295086229477,0.515095
1295086289477,0.505944
1295086349477,0.514492
1295086409477,0.507886
1295086469477,0.515322
1295086529477,0.509310
1295086589477,0.511250
1295086649477,0.510677
1295086709477,0.515847
1295086769477,0.508230
1295086829477,0.513743
1295086889477,0.509948
1295086949477,0.512535
1295087009477,0.512421
1295087069477,0.509072
1295087129477,0.514292
1295087189477,0.512568
1295087249477,0.510853
1295087309477,0.515107
1295087369477,0.516794
1295087429477,0.513721
1295087489477,0.512649
1295087549477,0.512996
1295087609477,0.516803
1295087669477,0.515428
1295087729477,0.514336
1295087789477,0.515727
1295087849477,0.512362
1295087909477,0.511599
1295087969477,0.510781
1295088029477,0.508192
1295088089477,0.506477
1295088149477,0.510447
1295088209477,0.507917
1295088269477,0.506263
1295088329477,0.504478
1295088389477,0.506957
1295088449477,0.504954
1295088509477,0.504074
1295088569477,0.505355
1295088629477,0.504404
1295088689477,0.505273
1295088749477,0.506451
1295088809477,0.506214
1295088869477,0.506526
1295088929477,0.505800
1295088989477,0.506074
1295089049477,0.504542
1295089109477,0.503304
1295089169477,0.502854
1295089229489,0.508128
1295089289489,0.503533
1295089349489,0.509195
1295089409489,0.509167
1295089469489,0.510720
1295089529489,0.509056
1295089589489,0.506600
1295089649489,0.504421
1295089709489,0.511002
1295089769489,0.504658
1295089829489,0.509645
1295089889489,0.502746
1295090429489,0.512202
1295090489489,0.501033
1295090549489,0.501510
1295090609489,0.498806
1295090669489,0.498767
1295090729489,0.501996
1295090789489,0.500632
1295090849489,0.497664
1295090909489,0.504203
1295090969489,0.502095
1295091029489,0.503337
1295091089489,0.502797
1295091149489,0.505370
1295091209489,0.496047
1295091269489,0.502388
1295091329489,0.504960
1295091389489,0.502218
1295091449489,0.500246
1295091509489,0.502504
1295091569489,0.504153
1295091629489,0.500898
1295091689489,0.503980
1295091749489,0.498179
1295091809489,0.501483
1295091869489,0.503615
1295091929489,0.507383
1295091989489,0.501863
1295092049489,0.508628
1295092109489,0.504042
1295092169489,0.504259
1295092229489,0.507495
1295092289489,0.505311
1295092349489,0.502756
1295092409489,0.503549
1295092469489,0.504273
1295092529489,0.503212
1295092589489,0.506070
1295092649489,0.501823
1295092709489,0.501693
1295092769489,0.502717
1295092829501,0.503171
1295092889501,0.501067
1295092949501,0.505727
1295093009501,0.501946
1295093069501,0.501785
1295093129501,0.499517
1295093189501,0.504183
1295093249501,0.499835
1295093309501,0.505404
1295093369501,0.502668
1295093429501,0.503341
1295093489501,0.503498
1295093549501,0.502533
1295093609501,0.508685
1295093669501,0.502406
1295093729501,0.501847
1295093789501,0.503485
1295093849501,0.504971
1295093909501,0.504385
1295093969501,0.507645
1295094029501,0.500782
1295094089501,0.502646
1295094149501,0.504762
1295094209501,0.499157
1295094269501,0.502771
1295094329501,0.508312
1295094389501,0.511672
1295094449501,0.510286
1295094509501,0.503171
1295094569501,0.506349
1295094629501,0.506172
1295094689501,0.501451
1295094749501,0.507830
1295094809501,0.505929
1295094869501,0.502662
1295094929501,0.507445
1295094989501,0.503292
1295095049501,0.500777
1295095109501,0.509925
1295095169501,0.505539
1295095229501,0.506286
1295095289501,0.505487
1295095349501,0.503259
1295095409501,0.501068
1295095469501,0.504342
1295095529501,0.501957
1295095589501,0.503376
1295095649501,0.500680
1295095709501,0.506297
1295095769501,0.500046
1295095829501,0.506493
1295095889501,0.503720
1295095949501,0.505471
1295096009501,0.505972
1295096069501,0.504356
1295096129501,0.508814
1295096189501,0.501776
1295096249501,0.501606
1295096309501,0.505194
1295096369501,0.498150
1295096429513,0.507043
1295096489513,0.505590
1295096549513,0.501070
1295096609513,0.499008
1295096669513,0.503174
1295096729513,0.505745
1295096789513,0.498183
1295096849513,0.501927
1295096909513,0.500506
1295096969513,0.506093
1295097029513,0.506699
1295097089513,0.503206
1295097149513,0.499941
1295097209513,0.505237
1295097269513,0.505405
1295097329513,0.500968
1295097389513,0.499900
1295097449513,0.504147
1295097509513,0.499836
1295097569513,0.505009
1295097629513,0.501758
1295097689513,0.507701
1295097749513,0.502269
1295097809513,0.502712
1295097869513,0.505211
1295097929513,0.502991
1295097989513,0.504928
1295098049513,0.505443
1295098109513,0.501194
1295098169513,0.505515
1295098229513,0.506152
1295098289513,0.506627
1295098349513,0.513174
1295098409513,0.513069
1295098469513,0.507708
1295098529513,0.507577
1295098589513,0.513967
1295098649513,0.513149
1295098709513,0.507991
1295098769513,0.512589
1295098829513,0.509521
1295098889513,0.505902
1295098949513,0.512335
1295099009513,0.512557
1295099069513,0.505892
1295099129513,0.508984
1295099189513,0.504782
1295099249513,0.505812
1295099309513,0.507101
1295099369513,0.510080
1295099429513,0.506986
1295099489513,0.508989
1295099549513,0.508542
1295099609513,0.508921
1295099669513,0.512351
1295099729513,0.505570
1295099789513,0.511342
1295099849513,0.506922
1295099909513,0.508871
1295099969513,0.507400
1295100029524,0.509863
1295100089524,0.504558
1295100149524,0.508742
1295100209524,0.513313
1295100269524,0.510777
1295100329524,0.507132
1295100389524,0.513032
1295100449524,0.505345
1295100509524,0.504608
1295100569524,0.508500
1295100629524,0.509327
1295100689524,0.510535
1295100749524,0.511325
1295100809524,0.506554
1295100869524,0.511312
1295100929524,0.507626
1295100989524,0.510717
1295101049524,0.520575
1295101109524,0.518111
1295101169524,0.532420
1295101229524,0.542434
1295101289524,0.536051
1295101349524,0.543470
1295101409524,0.544309
1295101469524,0.535904
1295101529524,0.539618
1295101589524,0.534095
1295101649524,0.532388
1295101709524,0.530756
1295101769524,0.533909
1295101829524,0.532156
1295101889524,0.526010
1295101949524,0.520910
1295102009524,0.520248
1295102069524,0.520702
1295102129524,0.513139
1295102189524,0.521250
1295102249524,0.519204
1295102309524,0.522549
1295102369524,0.519088
1295102429524,0.521380
1295102489524,0.522542
1295102549524,0.519031
1295102609524,0.517928
1295102669524,0.517168
1295102729524,0.518107
1295102789524,0.513508
1295102849524,0.516826
1295102909524,0.513941
1295102969524,0.513346
1295103029524,0.516753
1295103089524,0.515478
1295103149524,0.515529
1295103209524,0.516315
1295103269524,0.516942
1295103329524,0.516291
1295103389524,0.512419
1295103449524,0.514843
1295103509524,0.511614
1295103569524,0.513581
1295103629536,0.509275
1295103689536,0.511906
1295103749536,0.508599
1295103809536,0.515254
1295103869536,0.515137
1295103929536,0.510456
1295103989536,0.511157
1295104049536,0.515029
1295104109536,0.512157
1295104169536,0.510382
1295104229536,0.511731
1295104289536,0.511474
1295104349536,0.511394
1295104409536,0.513263
1295104469536,0.514932
1295104529536,0.514579
1295104589536,0.512869
1295104649536,0.509633
1295104709536,0.512856
1295104769536,0.513997
1295104829536,0.512604
1295104889536,0.515352
1295104949536,0.515799
1295105009536,0.516729
1295105069536,0.518993
1295105129536,0.516408
1295105189536,0.511543
1295105249536,0.513654
1295105309536,0.508816
1295105369536,0.515117
1295105429536,0.516504
1295105489536,0.513684
1295105549536,0.509440
1295105609536,0.520549
1295105669536,0.518128
1295105729536,0.514888
1295105789536,0.509216
1295105849536,0.514018
1295105909536,0.510857
1295105969536,0.514141
1295106029536,0.516383
1295106089536,0.509534
1295106149536,0.512593
1295106209536,0.514302
1295106269536,0.512850
1295106329536,0.511856
1295106389536,0.515124
1295106449536,0.517842
1295106509536,0.517861
1295106569536,0.510630
1295106629536,0.513094
1295106689536,0.510046
1295106749536,0.509536
1295106809536,0.515306
1295106869536,0.515639
1295106929536,0.514222
1295106989536,0.509906
1295107049536,0.516222
1295107109536,0.516301
1295107169536,0.510886
1295107229547,0.515367
1295107289547,0.515947
1295107349547,0.513975
1295107409547,0.509732
1295107469547,0.508941
1295107529547,0.510426
1295107589547,0.517211
1295107649547,0.507600
1295107709547,0.514538
1295107769547,0.512966
1295107829547,0.512109
1295107889547,0.513495
1295107949547,0.508793
1295108009547,0.511718
1295108069547,0.512601
1295108129547,0.508532
1295108189547,0.512856
1295108249547,0.514322
1295108309547,0.508345
1295108369547,0.509789
1295108429547,0.509647
1295108489547,0.509824
1295108549547,0.507244
1295108609547,0.511339
1295108669547,0.506730
1295108729547,0.509805
1295108789547,0.513419
1295108849547,0.511512
1295108909547,0.509283
1295108969547,0.514786
1295109029547,0.512711
1295109089547,0.506548
1295109149547,0.511556
1295109209547,0.510838
1295109269547,0.511475
1295109329547,0.513022
1295109389547,0.511508
1295109449547,0.503536
1295109509547,0.513040
1295109569547,0.514025
1295109629547,0.512294
1295109689547,0.506174
1295109749547,0.507235
1295109809547,0.507794
1295109869547,0.506985
1295109929547,0.508851
1295109989547,0.505597
1295110049547,0.507042
1295110109547,0.509747
1295110169547,0.506836
1295110229547,0.507965
1295110289547,0.506579
1295110349547,0.510176
1295110409547,0.512501
1295110469547,0.512119
1295110529547,0.503261
1295110589547,0.502914
1295110649547,0.503541
1295110709547,0.507206
1295110769547,0.508871
1295110829559,0.510481
1295110889559,0.504292
1295110949559,0.512950
1295111009559,0.512144
1295111069559,0.509479
1295111129559,0.503797
1295111189559,0.509119
1295111249559,0.507977
1295111309559,0.505103
1295111369559,0.506041
1295111429559,0.510925
1295111489559,0.510680
1295111549559,0.510931
1295111609559,0.506568
1295111669559,0.504416
1295111729559,0.508635
1295111789559,0.506636
1295111849559,0.512527
1295111909559,0.510261
1295111969559,0.507613
1295112029559,0.507205
1295112089559,0.508908
1295112149559,0.509134
1295112209559,0.509964
1295112269559,0.510195
1295112329559,0.507394
1295112389559,0.511633
1295112449559,0.510231
1295112509559,0.510272
1295112569559,0.510946
1295112629559,0.504761